CAPE
1354 1416 1370 1371 1328 1365 1383 1468 1628 1712 1757 1897 1938 1886 1996 2111 2198 2409 2592 2724 2766 2763 2782 2800 2847 2796 2666 2554 2455 2504 2682 2682 2868 2795 2724 2922 3007 3107 3208 3244 3059 2709
1323 1430 1505 1363 1337 1431 1355 1361 1423 1478 1669 1836 1859 1842 1996 2074 2257 2402 2503 2675 2765 2752 2699 2678 2772 2796 2557 2535 2590 2600 2718 2856 2778 3129 2846 2855 2893 2828 2921 2948 2941 2792
1641 1430 1484 1463 1379 1392 1429 1366 1349 1362 1592 1792 1827 1776 1935 2094 2236 2391 2464 2569 2675 2730 2648 2524 2689 2792 2448 2409 2503 2576 2711 2792 2701 2664 2719 2439 2356 2774 3054 3150 3002 2593
1721 1773 1613 1488 1481 1484 1483 1458 1404 1367 1466 1698 1789 1880 1861 2039 2129 2246 2420 2861 2577 2643 2615 2481 2580 2690 2551 2366 2358 2343 2497 2646 2623 2488 2390 2505 2758 2998 2984 2956 3064 2887
1472 1713 1775 1633 1424 1368 1525 1486 1469 1417 1395 1522 1690 1886 2015 2072 2096 2090 2153 2292 2459 2544 2555 2544 2570 2509 2507 2421 2370 2268 2301 2281 2330 2288 2173 2172 2285 2591 2886 3178 3350 3200
1256 1457 1644 1651 1400 1309 1492 1533 1494 1530 1455 1448 1492 1604 1918 2070 2175 2156 2102 2087 2115 2292 2395 2533 2612 2522 2536 2560 2514 2361 2306 2364 2307 2330 2397 2469 2464 2588 3239 3547 3435 3109
1254 1286 1452 1531 1424 1269 1328 1444 1500 1558 1644 1644 1637 1626 1623 1811 2042 2178 2193 2102 2034 2143 2309 2510 2594 2588 2589 2638 2692 2614 2545 2485 2508 2577 2630 2645 2641 2780 2886 3030 3128 3004
1317 1276 1337 1432 1449 1381 1306 1306 1318 1340 1386 1484 1626 1762 1753 1711 1708 1759 2026 2123 2127 2101 2224 2442 2555 2548 2582 2667 2702 2776 2788 2802 2751 2699 2776 2773 2793 2796 2812 2799 2816 2791
1316 1301 1283 1367 1428 1392 1384 1348 1324 1319 1300 1278 1305 1403 1537 1614 1635 1635 1664 2057 2142 2138 2142 2290 2463 2538 2585 2655 2725 2722 2698 2681 2660 2615 2503 2414 2388 2406 2430 2474 2565 2623
1261 1256 1262 1288 1336 1367 1325 1331 1372 1396 1386 1370 1383 1368 1359 1388 1492 1568 1588 1765 2074 2149 2140 2162 2252 2395 2477 2540 2626 2674 2621 2555 2548 2541 2514 2325 2127 2135 2182 2267 2328 2371
1187 1216 1222 1206 1203 1237 1271 1250 1244 1258 1303 1349 1374 1398 1391 1356 1300 1266 1359 1502 1808 2047 2082 2056 2090 2157 2259 2382 2481 2530 2536 2510 2504 2490 2415 2263 2117 2076 2445 2182 2238 2317
1278 1247 1236 1206 1156 1120 1129 1154 1150 1129 1135 1148 1171 1192 1158 1064 1016 1014 1073 1278 1432 1751 1948 2001 2005 1997 2043 2155 2291 2370 2419 2462 2447 2402 2304 2166 2084 2090 2147 2267 2297 2348
1508 1394 1316 1283 1245 1164 1093 1068 1072 1100 1085 1069 1074 1047 1084 1025 876 784 841 1040 1229 1405 1636 1837 1935 1967 2004 2061 2101 2104 2159 2282 2354 2359 2280 2122 2025 2010 2042 2107 2216 2253
1862 1748 1718 1672 1564 1349 1176 1052 1057 1079 1085 1119 1060 1042 1020 1027 996 786 715 761 1032 1248 1411 1563 1736 1862 1923 1937 1903 1875 1892 1958 2052 2105 2099 2050 2010 2002 1988 1956 1949 1968
1939 2061 2061 1979 1826 1894 1710 1510 1355 1081 1023 999 999 943 933 981 1016 922 684 651 694 998 1265 1402 1500 1567 1615 1648 1663 1665 1657 1696 1753 1816 1867 1884 1878 1877 1872 1855 1855 1862
1727 1767 1674 1630 1447 1369 1665 1944 1830 1665 1391 1023 960 928 914 941 1000 1002 848 133 295 540 850 1159 1376 1451 1487 1493 1512 1534 1554 1547 1532 1568 1647 1714 1738 1720 1678 1641 1651 1714
1285 1476 1421 1363 1319 1062 1378 1219 1881 1898 1822 1578 1197 993 904 839 808 783 767 738 79 274 452 686 919 1196 1372 1452 1470 1471 1471 1485 1491 1481 1458 1488 1556 1585 1541 1466 1448 1484
1038 1036 1052 1065 1128 1129 1007 1186 1408 1536 1758 1752 1560 1254 970 780 691 638 645 626 227 35 186 350 479 695 895 1154 1319 1383 1424 1439 1452 1458 1429 1354 1287 1291 1289 1247 1195 1190
818 908 859 998 1128 1073 976 921 785 773 1026 1282 1372 1390 1198 1001 811 705 596 535 444 0 2 125 348 366 568 726 923 1148 1298 1368 1394 1384 1318 1233 1182 1155 1132 1113 1084 1090
897 955 1009 1018 980 929 776 694 776 1006 930 1101 1041 1031 1020 1045 1042 964 825 684 524 263 0 2 24 178 4 0 676 782 950 1105 1202 1224 1213 1165 1145 1138 1137 1139 1146 1140
817 865 950 1098 1370 1599 1699 1547 1326 1163 1514 1569 1526 1475 1365 1250 1062 1038 980 930 873 745 867 923 601 118 0 0 0 506 679 746 826 910 990 1057 1099 1107 1095 1085 1061 1049
922 984 932 981 1017 1107 1255 1222 1304 1418 1286 1407 1553 1602 1605 1575 1348 1150 1094 925 688 655 610 812 875 918 608 0 0 0 16 529 663 725 783 838 915 1055 1130 1154 1167 1177
785 934 1046 1072 1080 1036 1061 1118 1191 1089 1104 1272 1378 1484 1567 1591 1660 1641 1543 1366 1166 1032 916 806 845 821 838 868 701 535 461 119 292 421 628 652 729 801 940 1086 1192 1256
626 642 655 695 710 837 961 995 1002 954 1000 1012 1041 1206 1289 1393 1419 1442 1392 1439 1456 1372 1253 1124 1040 938 839 771 782 880 797 599 419 276 53 488 569 650 751 866 969 1221
431 426 436 451 479 567 636 856 886 920 953 964 1003 970 1029 1026 1188 1260 1354 1391 1457 1454 1341 1299 1299 1268 1178 1081 978 855 811 865 923 884 762 625 536 508 510 543 596 805
269 321 388 349 344 357 437 556 703 790 825 817 802 825 866 972 1021 1111 1262 1316 1445 1568 1466 1337 1348 1378 1330 1338 1323 1226 1114 956 816 776 891 1002 1084 1126 1125 1043 913 799
Wind_Speed
11 12 11 11 11 11 10 10 11 10 9 8 7 8 8 9 10 9 9 9 9 7 7 6 6 6 6 5 5 5 5 4 4 4 4 5 6 7 9 9 9 8
11 12 13 12 12 13 12 11 10 10 9 9 8 8 8 9 9 9 10 10 9 8 8 7 6 6 5 5 5 4 5 4 5 5 4 5 6 6 7 7 7 7
13 13 12 12 11 11 11 11 11 10 10 9 9 9 8 9 8 10 10 10 9 9 8 7 6 6 5 5 5 4 4 4 4 5 4 4 6 6 7 7 7 7
14 13 13 13 13 11 12 12 12 12 13 12 9 8 8 8 8 8 10 10 10 9 9 8 6 5 5 4 5 4 4 4 5 5 4 6 6 6 7 8 8 8
14 14 14 14 13 13 14 12 12 12 12 10 10 10 9 9 8 8 8 9 9 9 9 8 7 6 5 5 4 4 4 4 5 5 5 6 7 7 7 8 8 10
16 16 15 14 13 13 13 12 12 12 11 12 10 10 9 9 8 7 7 7 8 8 8 8 7 7 6 6 5 5 4 4 5 5 5 5 7 7 8 8 9 9
15 17 16 16 14 13 12 12 12 12 12 11 13 11 11 10 9 8 7 6 7 7 7 6 7 7 7 7 6 6 6 5 5 5 5 5 5 7 7 8 8 8
15 18 18 18 16 14 12 12 12 12 12 14 13 11 12 11 10 10 9 8 7 7 7 7 6 6 7 7 6 6 6 6 6 5 5 5 5 5 6 7 8 8
16 17 18 17 16 16 13 12 12 12 13 13 12 12 12 11 11 11 11 10 9 8 8 8 7 7 8 8 7 6 5 6 6 5 5 5 5 4 5 6 7 7
15 15 15 15 16 17 15 14 13 13 14 13 13 13 12 11 11 12 13 11 10 10 10 10 9 9 9 8 7 7 6 6 6 6 6 6 5 5 5 6 5 6
13 13 13 14 15 18 17 16 15 14 14 13 13 12 12 12 11 13 13 13 11 10 10 10 10 10 9 9 10 9 8 8 8 8 8 7 7 6 6 5 5 5
14 14 14 14 15 17 18 18 16 15 15 15 14 13 12 12 11 12 12 13 12 11 11 10 10 10 9 9 9 10 11 11 10 10 9 9 9 8 8 8 7 6
19 17 18 17 17 18 21 22 20 17 16 16 17 15 14 13 13 13 13 13 13 13 12 12 11 11 10 10 10 11 11 11 11 11 11 11 11 10 10 11 10 10
28 28 27 24 21 21 22 24 24 21 19 18 19 17 15 15 14 14 14 15 14 14 13 13 12 12 12 12 12 11 11 11 11 12 12 12 13 12 13 13 12 12
38 36 36 35 29 23 22 23 26 26 24 21 19 18 17 16 16 15 16 16 16 16 15 15 14 13 14 14 13 12 13 12 11 12 12 13 14 14 15 15 15 15
32 31 30 29 29 27 23 22 24 27 26 25 23 23 22 20 18 17 16 15 16 17 18 18 17 16 13 10 12 14 14 13 13 13 13 14 14 15 16 16 16 17
30 32 31 26 25 26 26 25 23 24 27 27 26 25 24 24 22 19 17 17 nan 18 19 19 19 18 12 11 10 10 14 16 15 14 15 14 15 15 15 16 18 18
34 34 30 25 24 23 23 24 26 25 25 26 27 26 25 25 24 22 21 20 19 nan 19 19 20 17 14 13 11 9 11 14 16 16 16 16 16 16 16 17 18 18
29 30 29 27 25 24 24 25 22 22 26 30 30 31 30 27 24 24 22 22 22 nan nan 20 20 17 15 15 13 11 10 12 17 17 17 17 17 17 17 17 18 19
31 28 24 23 21 22 24 26 26 26 29 31 32 34 32 30 29 26 24 23 23 23 nan nan nan 19 nan nan 14 14 13 16 17 17 17 17 18 18 18 18 19 19
25 27 29 31 31 30 29 30 30 31 35 36 35 33 32 32 31 29 27 26 25 26 27 26 25 24 nan nan nan 14 14 19 20 20 20 20 19 20 20 20 20 21
20 21 23 26 30 33 36 37 38 37 38 38 36 34 33 32 31 31 30 29 28 27 27 26 28 27 26 nan nan nan nan 23 22 21 19 19 20 21 22 22 22 23
20 19 20 21 23 27 31 34 36 34 33 32 33 32 29 28 27 27 29 29 28 27 27 26 27 27 28 30 27 23 26 25 24 23 22 20 19 20 22 23 23 24
26 24 24 21 18 19 21 23 26 29 32 31 30 30 30 30 28 26 26 28 29 28 28 28 27 27 28 31 32 31 29 28 26 25 nan 22 21 21 23 23 23 20
32 31 29 25 20 18 17 16 16 23 27 29 29 28 26 26 27 26 26 28 30 29 28 28 29 31 31 30 31 32 33 32 31 29 26 24 23 23 25 25 24 23
33 33 32 30 26 24 22 17 16 18 21 23 25 27 25 23 22 24 25 26 27 29 29 30 31 33 34 30 28 28 29 33 33 32 28 27 28 27 27 27 27 27
Wind_Direction
215 209 203 199 194 193 193 188 187 190 190 194 186 171 165 161 169 167 160 162 158 155 155 156 157 157 163 166 160 166 161 146 150 163 160 160 151 159 156 163 167 166
225 219 206 200 198 197 196 194 196 196 195 197 191 189 180 182 174 172 168 163 161 156 157 160 160 156 161 169 171 172 163 166 144 173 177 170 159 172 158 164 166 167
230 227 220 211 205 201 200 199 202 202 206 203 201 199 194 192 186 178 173 167 161 160 160 161 166 161 163 170 180 178 171 165 148 163 177 161 173 173 164 175 174 173
231 233 229 221 214 211 209 211 206 206 210 215 208 205 204 202 201 190 181 173 168 165 165 169 166 169 170 177 186 174 169 162 163 187 176 176 175 185 175 185 182 181
237 235 233 230 222 219 220 219 218 218 218 218 216 214 212 207 213 203 196 184 179 172 175 171 175 178 183 190 192 174 174 157 171 192 186 172 178 189 185 194 189 184
229 232 235 239 234 233 230 227 224 227 224 224 224 225 220 217 217 217 212 203 194 188 184 179 182 185 195 198 199 183 181 166 170 192 183 180 180 189 191 201 205 197
230 228 230 233 236 238 243 240 234 231 231 229 228 227 229 225 221 219 223 219 213 209 202 195 192 194 198 204 206 194 185 180 182 186 175 176 192 181 194 201 205 204
231 226 223 224 228 232 239 244 243 239 235 231 232 227 232 231 228 223 223 225 225 218 213 208 209 207 207 211 211 206 193 193 184 183 178 175 195 182 187 206 211 208
235 231 227 223 222 225 230 237 241 241 238 238 233 230 231 233 234 236 233 231 225 224 221 214 213 213 214 216 215 218 214 204 201 201 186 178 183 176 178 196 206 209
238 238 238 229 222 220 224 227 233 237 239 237 233 230 233 232 235 240 242 243 237 230 227 219 214 210 212 215 221 228 227 224 221 221 211 198 194 193 189 194 195 203
241 241 241 235 226 221 219 222 224 229 233 235 234 229 227 231 232 237 244 247 248 244 239 231 223 219 213 210 213 221 229 232 232 232 228 222 215 210 209 214 212 210
236 233 232 232 228 221 217 218 220 221 224 226 228 226 222 224 231 236 242 247 247 247 249 246 241 237 230 221 219 219 221 224 228 231 232 232 228 224 222 227 230 228
233 229 223 222 223 221 217 217 217 218 222 222 223 219 218 216 219 225 229 237 241 244 246 249 251 250 246 239 233 231 230 229 228 228 230 232 232 234 233 234 234 233
220 219 217 214 216 218 219 218 217 218 220 222 225 221 217 216 218 222 224 228 232 237 239 243 246 248 249 247 245 245 244 240 239 237 236 235 234 234 235 237 238 237
222 219 213 207 206 214 219 216 217 217 218 221 225 226 223 220 221 226 230 231 230 233 232 234 239 243 246 249 249 248 248 247 248 248 246 242 239 238 237 237 237 236
236 237 233 220 207 199 202 213 217 216 219 219 220 223 223 224 224 227 233 239 239 237 234 231 229 231 239 263 262 253 251 248 248 250 251 250 248 244 241 243 242 241
238 239 238 236 229 216 199 197 207 216 218 219 218 221 225 224 223 222 227 234 nan 245 245 240 233 229 234 246 259 269 256 252 252 251 253 255 254 253 250 250 249 249
229 229 228 226 232 231 223 212 198 203 216 221 221 220 222 226 226 224 222 225 233 nan 246 248 244 242 244 244 250 260 263 256 255 254 255 257 257 258 255 254 254 256
224 226 223 221 220 223 225 228 223 207 211 218 218 220 220 222 224 227 227 227 228 nan nan 243 243 249 258 259 256 256 261 259 249 256 260 262 265 266 264 262 261 259
226 227 234 230 226 223 224 228 229 223 220 221 220 220 220 219 220 223 227 230 233 236 nan nan nan 239 nan nan 266 265 262 258 245 250 254 258 263 266 265 265 265 263
230 229 228 229 229 230 234 233 230 227 225 223 221 220 220 219 219 220 223 227 231 237 240 241 243 237 nan nan nan 261 260 256 244 241 242 246 252 256 260 262 263 264
224 226 228 228 228 229 230 230 226 225 228 224 223 222 221 222 220 222 222 225 229 235 239 239 242 240 244 nan nan nan nan 251 249 248 247 246 247 250 254 256 259 262
231 231 234 233 231 230 232 233 231 227 234 236 229 231 230 230 231 231 229 227 228 233 238 239 242 247 253 252 250 251 254 250 249 246 244 244 245 249 252 254 257 261
237 238 237 234 236 238 234 235 235 231 230 230 230 225 222 221 223 229 236 240 237 231 231 235 239 249 260 261 261 263 261 255 252 251 nan 243 241 243 248 250 255 263
239 239 239 239 241 241 245 247 241 230 224 223 225 224 223 219 218 222 227 233 236 234 229 230 233 239 250 255 261 269 265 257 257 255 250 247 247 244 247 250 251 255
245 244 243 242 242 242 244 250 252 242 233 228 228 228 222 220 219 216 214 220 227 231 232 234 234 237 246 253 254 260 267 262 260 261 257 253 251 250 250 252 254 253